Location: Ceske Budejovice
(48.9830°N, 14.4670°E)
Time: 07:52:43
(UTC+02:00)

DX 1 - Pass Details

Date: 26 August 2019
Orbit: 620 x 630 km, 98.4° (Epoch: 22 September)

Event Time Altitude Azimuth Distance (km) Brightness Sun altitude
Rises 03:20:52 0° 130° (SE) 2,889 ? -23.3°
Reaches altitude 10° 03:23:21 10° 116° (ESE) 1,989 ? -23.0°
Maximum altitude 03:26:50 24° 63° (ENE) 1,288 ? -22.7°
Drops below altitude 10° 03:30:20 10° 9° (N) 2,004 ? -22.3°
Sets 03:32:50 0° 356° (N) 2,917 ? -22.1°
